Weather History for Wildwood, NJ

Change the Weather History Date:

Thursday, February 14, 2013

  Actual Average Record
Temperature  
Mean Temperature 38 °F -  
Max Temperature 44 °F 42 °F 62 °F (2011)
Min Temperature 33 °F 29 °F 15 °F (2003)
Degree Days  
Heating Degree Days 26    
Moisture  
Dew Point 32 °F    
Average Humidity 81    
Maximum Humidity 93    
Minimum Humidity 61    
Precipitation  
Precipitation 0.01 in - - ()
Sea Level Pressure  
Sea Level Pressure 29.96 in    
Wind  
Wind Speed 7 mph (West)    
Max Wind Speed 10 mph    
Max Gust Speed -    
Visibility 7 miles    
Events      
Averages and records for this station are not official NWS values.
T = Trace of Precipitation, MM = Missing Value Source: NWS Daily Summary

Daily Weather History Graph

Daily Weather History Graph

Search for Another Location

Airport:

Trip Planner

Search our weather history database for the weather conditions in past years. The results will help you decide how hot, cold, wet, or windy it might be!

Date:

Astronomy

Feb. 14, 2013 Rise Set
Actual Time 6:51 AM EST 5:36 PM EST
Civil Twilight 6:24 AM EST 6:03 PM EST
Nautical Twilight 5:53 AM EST 6:34 PM EST
Astronomical Twilight 5:22 AM EST 7:05 PM EST
Moon 8:55 AM EST (2/14) 10:33 PM EST (2/14)
Length of Visible Light 11h 38m
Length of Day
10h 44m
Waxing Crescent, 21% of the Moon is Illuminated
Feb 14
Waxing Crescent
Feb 17
First Quarter
Feb 25
Full
Mar 4
Last Quarter
Mar 11
New

Hourly Weather History & Observations

Time (EST) Temp. Windchill Dew Point Humidity Pressure Visibility Wind Dir Wind Speed Gust Speed Precip Events Conditions
12:15 AM 33.8 °F 27.7 °F 30.2 °F 87% 29.71 in 3.0 mi North 6.9 mph - N/A   Overcast
12:35 AM 33.8 °F 28.6 °F 30.2 °F 87% 29.71 in 4.0 mi NNW 5.8 mph - 0.01 in   Overcast
12:55 AM 33.8 °F 27.7 °F 30.2 °F 87% 29.73 in 5.0 mi NNW 6.9 mph - 0.01 in   Overcast
1:15 AM 33.8 °F 27.7 °F 30.2 °F 87% 29.74 in 5.0 mi NW 6.9 mph - N/A   Overcast
1:35 AM 33.8 °F 27.0 °F 30.2 °F 87% 29.75 in 6.0 mi NNW 8.1 mph - N/A   Overcast
1:55 AM 35.6 °F 28.0 °F 32.0 °F 87% 29.77 in 6.0 mi NNW 10.4 mph - N/A   Overcast
2:15 AM 35.6 °F 29.2 °F 30.2 °F 81% 29.78 in 5.0 mi NW 8.1 mph - N/A   Overcast
2:35 AM 35.6 °F 29.2 °F 30.2 °F 81% 29.79 in 5.0 mi NW 8.1 mph - N/A   Overcast
2:55 AM 35.6 °F 28.6 °F 32.0 °F 87% 29.81 in 5.0 mi NNW 9.2 mph - N/A   Overcast
3:15 AM 35.6 °F 29.9 °F 32.0 °F 87% 29.82 in 5.0 mi NW 6.9 mph - N/A   Overcast
3:35 AM 35.6 °F 31.7 °F 32.0 °F 87% 29.82 in - NNW 4.6 mph - N/A   Overcast
3:55 AM 35.6 °F 31.7 °F 32.0 °F 87% 29.82 in - NNW 4.6 mph - N/A   Unknown
4:15 AM 35.6 °F 31.7 °F 32.0 °F 87% 29.83 in - NW 4.6 mph - N/A   Overcast
4:35 AM 35.6 °F 31.7 °F 32.0 °F 87% 29.85 in - WNW 4.6 mph - N/A   Overcast
4:55 AM 35.6 °F 30.7 °F 32.0 °F 87% 29.87 in - NW 5.8 mph - N/A   Overcast
5:15 AM 35.6 °F 29.2 °F 32.0 °F 87% 29.88 in - NW 8.1 mph - N/A   Overcast
5:35 AM 35.6 °F 30.7 °F 32.0 °F 87% 29.89 in - NW 5.8 mph - N/A   Overcast
5:55 AM 35.6 °F 29.9 °F 33.8 °F 93% 29.90 in - WNW 6.9 mph - N/A   Overcast
6:15 AM 35.6 °F 29.9 °F 32.0 °F 87% 29.90 in - WNW 6.9 mph - N/A   Mostly Cloudy
6:35 AM 35.6 °F 29.9 °F 32.0 °F 87% 29.91 in - WNW 6.9 mph - N/A   Overcast
6:55 AM 35.6 °F 30.7 °F 32.0 °F 87% 29.93 in - WNW 5.8 mph - N/A   Overcast
7:15 AM 35.6 °F 31.7 °F 32.0 °F 87% 29.94 in - WNW 4.6 mph - N/A   Overcast
7:35 AM 35.6 °F 29.9 °F 32.0 °F 87% 29.95 in - NW 6.9 mph - N/A   Overcast
7:55 AM 35.6 °F 30.7 °F 32.0 °F 87% 29.96 in - WNW 5.8 mph - N/A   Unknown
8:15 AM 35.6 °F 29.9 °F 32.0 °F 87% 29.98 in - WNW 6.9 mph - N/A   Unknown
8:35 AM 35.6 °F 29.9 °F 32.0 °F 87% 29.98 in - NW 6.9 mph - N/A   Overcast
8:55 AM 37.4 °F 33.8 °F 32.0 °F 81% 29.99 in - WNW 4.6 mph - N/A   Overcast
9:15 AM 37.4 °F 32.1 °F 32.0 °F 81% 29.99 in - WNW 6.9 mph - N/A   Overcast
9:35 AM 37.4 °F 33.8 °F 33.8 °F 87% 29.99 in - WNW 4.6 mph - N/A   Unknown
9:55 AM 37.4 °F 31.4 °F 33.8 °F 87% 30.00 in - West 8.1 mph - N/A   Unknown
10:15 AM 37.4 °F 31.4 °F 33.8 °F 87% 30.00 in - WNW 8.1 mph - N/A   Mostly Cloudy
10:35 AM 37.4 °F 32.1 °F 33.8 °F 87% 30.00 in 5.0 mi WNW 6.9 mph - N/A   Overcast
10:55 AM 37.4 °F 32.8 °F 33.8 °F 87% 30.01 in 5.0 mi NW 5.8 mph - N/A   Overcast
11:15 AM 39.2 °F 33.6 °F 33.8 °F 81% 30.01 in 6.0 mi West 8.1 mph - N/A   Mostly Cloudy
11:35 AM 39.2 °F 33.6 °F 33.8 °F 81% 30.00 in 6.0 mi NW 8.1 mph - N/A   Partly Cloudy
11:55 AM 39.2 °F 35.0 °F 33.8 °F 81% 30.00 in 7.0 mi West 5.8 mph - N/A   Partly Cloudy
12:15 PM 39.2 °F 35.9 °F 33.8 °F 81% 30.00 in 7.0 mi West 4.6 mph - N/A   Scattered Clouds
12:35 PM 41.0 °F 36.4 °F 33.8 °F 76% 30.00 in 8.0 mi WNW 6.9 mph - N/A   Partly Cloudy
12:55 PM 41.0 °F 36.4 °F 33.8 °F 76% 30.00 in 8.0 mi WNW 6.9 mph - N/A   Partly Cloudy
1:15 PM 41.0 °F 35.8 °F 33.8 °F 76% 29.99 in 8.0 mi WNW 8.1 mph - N/A   Clear
1:35 PM 42.8 °F 38.6 °F 33.8 °F 70% 30.00 in 8.0 mi West 6.9 mph - N/A   Clear
1:55 PM 42.8 °F 38.0 °F 32.0 °F 66% 30.00 in 10.0 mi WNW 8.1 mph - N/A   Clear
2:15 PM 42.8 °F 38.0 °F 32.0 °F 66% 30.00 in 10.0 mi WNW 8.1 mph - N/A   Clear
2:35 PM 42.8 °F 38.6 °F 32.0 °F 66% 30.01 in 10.0 mi WNW 6.9 mph - N/A   Clear
2:55 PM 42.8 °F 38.6 °F 32.0 °F 66% 30.00 in 10.0 mi NW 6.9 mph - N/A   Clear
3:15 PM 42.8 °F 39.3 °F 32.0 °F 66% 30.01 in 10.0 mi WNW 5.8 mph - N/A   Clear
3:35 PM 42.8 °F 40.1 °F 32.0 °F 66% 30.01 in 10.0 mi WNW 4.6 mph - N/A   Clear
3:55 PM 42.8 °F 41.1 °F 32.0 °F 66% 30.00 in 10.0 mi West 3.5 mph - N/A   Clear
4:15 PM 42.8 °F 40.1 °F 32.0 °F 66% 30.02 in 10.0 mi West 4.6 mph - N/A   Clear
4:35 PM 44.6 °F 42.2 °F 32.0 °F 61% 30.01 in 10.0 mi SW 4.6 mph - N/A   Clear
4:55 PM 42.8 °F 41.1 °F 30.2 °F 61% 30.01 in 10.0 mi West 3.5 mph - N/A   Clear
5:15 PM 42.8 °F - 30.2 °F 61% 30.01 in 10.0 mi Calm Calm - N/A   Clear
5:35 PM 41.0 °F 36.4 °F 30.2 °F 65% 30.02 in 10.0 mi South 6.9 mph - N/A   Clear
5:55 PM 39.2 °F 35.0 °F 30.2 °F 70% 30.03 in 9.0 mi South 5.8 mph - N/A   Clear
6:15 PM 37.4 °F 32.8 °F 30.2 °F 75% 30.03 in 10.0 mi South 5.8 mph - N/A   Clear
6:35 PM 37.4 °F 32.8 °F 30.2 °F 75% 30.03 in 8.0 mi South 5.8 mph - N/A   Clear
6:55 PM 37.4 °F 32.8 °F 30.2 °F 75% 30.04 in 8.0 mi South 5.8 mph - N/A   Clear
7:15 PM 37.4 °F 32.8 °F 30.2 °F 75% 30.05 in 8.0 mi South 5.8 mph - N/A   Clear
7:35 PM 37.4 °F 32.1 °F 30.2 °F 75% 30.05 in 8.0 mi South 6.9 mph - N/A   Clear
7:55 PM 37.4 °F 32.1 °F 32.0 °F 81% 30.04 in 7.0 mi South 6.9 mph - N/A   Clear
8:15 PM 37.4 °F 32.8 °F 32.0 °F 81% 30.04 in 7.0 mi South 5.8 mph - N/A   Clear
8:35 PM 37.4 °F 32.1 °F 32.0 °F 81% 30.05 in 5.0 mi South 6.9 mph - N/A   Clear
8:55 PM 37.4 °F 32.1 °F 33.8 °F 87% 30.05 in 5.0 mi South 6.9 mph - N/A   Clear
9:15 PM 37.4 °F 32.8 °F 33.8 °F 87% 30.05 in 5.0 mi South 5.8 mph - N/A   Clear
9:35 PM 37.4 °F 32.1 °F 33.8 °F 87% 30.05 in 5.0 mi South 6.9 mph - N/A   Clear
9:55 PM 37.4 °F 32.8 °F 33.8 °F 87% 30.05 in 5.0 mi South 5.8 mph - N/A   Clear
10:15 PM 37.4 °F 32.1 °F 33.8 °F 87% 30.05 in 5.0 mi South 6.9 mph - N/A   Clear
10:35 PM 35.6 °F 29.9 °F 33.8 °F 93% 30.05 in 5.0 mi SSW 6.9 mph - N/A   Clear
10:55 PM 37.4 °F 31.4 °F 33.8 °F 87% 30.05 in 5.0 mi SSW 8.1 mph - N/A   Clear
11:15 PM 37.4 °F 30.8 °F 33.8 °F 87% 30.06 in 5.0 mi South 9.2 mph - N/A   Clear
11:35 PM 37.4 °F 32.1 °F 33.8 °F 87% 30.06 in 5.0 mi SSW 6.9 mph - N/A   Clear
11:55 PM 35.6 °F 29.9 °F 32.0 °F 87% 30.06 in 6.0 mi SSW 6.9 mph - N/A   Clear